GFSMA_500_rhum_171.txt.gz
RH
40 40 40 40 40 40 40 39 38 38 36 35 33 30 27 24 22 21 20 20 21 24 25 26 25 24 22 26 20 15 19 28 35 14 21 33 38 48 54 47 51 71 36
49 48 48 48 47 47 47 46 45 44 41 39 36 33 30 27 24 21 18 17 18 18 18 21 22 24 22 22 27 30 26 20 25 46 20 16 32 41 58 68 57 57 61
54 54 54 54 53 52 52 53 53 52 48 46 40 35 30 25 22 20 19 18 17 16 15 15 17 17 20 21 23 28 28 27 23 26 48 20 20 34 47 63 80 53 56
56 52 49 46 45 47 50 54 60 61 56 50 42 36 34 29 25 21 18 17 14 14 13 16 17 18 18 19 20 24 26 27 30 38 25 53 32 31 36 50 74 87 54
52 48 47 43 44 48 54 60 55 47 41 40 34 27 21 16 15 13 12 11 11 10 11 11 12 14 18 20 19 19 22 25 26 30 43 49 59 39 29 41 53 80 85
56 52 44 45 47 49 50 52 45 38 29 25 23 18 15 14 12 11 11 9 8 8 9 11 10 15 19 19 20 20 21 22 24 24 27 45 60 63 42 36 48 62 87
53 46 44 48 49 51 54 50 47 39 27 20 16 14 15 15 14 14 11 8 7 7 8 9 10 11 14 18 20 20 21 21 23 24 24 32 47 56 68 53 52 62 78
46 52 66 68 66 61 53 52 43 28 20 15 13 12 11 11 12 12 11 8 8 8 10 10 10 11 11 12 14 16 16 18 20 22 24 24 36 51 66 79 80 76 78
65 72 79 78 76 51 40 28 20 13 10 8 7 6 6 7 10 11 11 10 10 11 9 8 8 7 8 8 9 11 14 15 16 19 20 24 22 39 58 68 89 94 89
71 89 90 67 46 34 23 14 9 5 4 5 4 3 3 4 7 14 12 11 10 5 4 4 5 5 4 4 6 7 8 9 11 12 16 19 23 21 40 59 68 92 93
96 71 52 40 31 22 12 6 4 14 26 27 15 10 8 7 8 15 10 7 4 6 26 20 16 15 13 12 6 5 6 7 7 8 10 13 17 22 21 33 53 61 91
69 48 38 29 21 12 8 4 17 33 46 43 47 55 22 18 20 26 11 10 6 6 16 27 26 23 24 24 18 10 5 5 9 9 8 10 13 15 20 20 26 49 52
45 35 29 19 11 9 8 10 35 46 59 63 71 81 60 55 40 20 22 16 9 8 7 6 6 12 21 26 28 22 10 6 10 13 10 10 11 12 16 20 19 24 56
34 29 16 11 13 14 14 39 49 58 66 55 28 45 47 34 25 30 25 24 23 21 21 15 10 9 8 11 22 28 18 12 11 12 15 12 10 11 12 17 20 19 94
24 14 14 23 23 23 41 57 58 63 48 26 17 23 30 38 35 29 24 24 23 22 21 20 17 17 15 9 8 15 29 22 13 12 12 14 13 11 10 15 18 19 21
15 17 29 33 32 41 58 52 68 73 81 31 24 32 36 36 34 29 24 21 20 21 22 21 19 17 16 16 11 7 11 30 28 19 13 10 12 13 11 11 18 20 22
20 37 50 50 47 54 61 18 20 67 93 68 21 23 23 24 22 20 21 22 20 17 18 19 18 18 16 11 15 14 7 10 28 29 24 13 11 11 12 12 12 21 28
33 54 58 60 59 62 55 8 10 31 58 69 19 14 11 10 8 8 7 6 6 5 5 4 4 5 5 6 8 13 13 7 9 25 26 22 13 8 10 14 13 12 22
38 54 54 64 67 69 35 10 12 12 12 11 10 9 7 7 7 6 6 6 6 6 5 5 4 4 4 4 4 4 8 11 6 8 22 24 19 12 9 8 12 15 15
32 56 58 67 74 58 16 12 12 13 11 10 9 9 9 9 9 9 10 9 9 9 8 8 7 7 6 5 5 4 3 4 7 5 7 17 22 20 18 17 13 9 12
52 63 68 53 24 24 10 14 12 11 10 10 10 11 11 11 11 11 10 10 9 9 9 9 8 8 8 7 6 5 5 4 3 5 5 6 14 20 20 22 22 19 13
64 68 72 66 12 11 9 13 11 10 11 12 12 12 12 12 12 12 12 11 11 10 10 9 8 7 7 6 6 6 6 6 4 3 3 6 9 22 23 23 26 25 22
64 79 75 62 12 12 12 11 11 12 13 13 14 15 16 17 17 16 15 14 12 11 10 9 9 8 7 6 5 5 5 5 5 4 3 4 8 14 27 31 38 30 27
52 88 84 67 12 14 13 12 13 14 15 16 19 21 23 23 22 20 18 17 15 14 12 11 9 8 7 6 5 5 5 5 4 4 4 4 5 16 20 26 35 42 39
58 100 96 71 14 16 13 12 15 16 18 21 25 28 28 27 25 23 21 20 17 15 14 12 10 9 8 8 12 17 15 8 6 6 4 5 7 13 29 34 29 28 45
77 100 97 65 18 19 14 14 17 19 22 26 31 34 33 31 28 27 25 23 21 19 18 15 13 12 13 16 32 48 61 60 41 23 16 8 13 24 44 50 40 32 31

GFSMA_500_rhum_174.txt.gz
RH
48 49 49 47 45 43 42 41 38 37 35 34 32 31 32 33 35 35 36 34 30 26 22 21 22 24 25 26 27 31 29 22 17 18 28 42 27 16 31 42 46 68 44
51 52 51 49 46 43 40 40 37 34 30 28 27 26 24 28 31 34 36 35 32 28 23 20 20 22 23 27 27 28 29 29 29 20 19 25 50 50 28 32 42 66 70
55 51 46 45 45 46 44 39 35 30 28 27 29 34 36 36 34 36 37 37 34 30 27 23 21 19 19 20 24 27 26 26 27 31 38 30 37 48 58 40 37 53 72
50 46 51 56 51 44 38 33 30 28 28 32 40 39 38 40 40 44 46 41 37 36 25 22 21 20 19 18 19 21 22 23 24 26 32 36 44 50 52 61 46 47 74
44 49 53 49 41 36 32 30 28 29 29 31 31 32 34 34 31 31 32 30 29 28 25 21 20 20 18 18 18 20 23 21 21 22 26 31 38 57 61 59 71 52 62
49 47 40 40 37 34 32 29 27 28 25 25 25 28 30 28 28 23 20 18 18 16 14 13 13 13 13 13 14 15 19 23 22 22 22 27 29 44 63 67 66 70 65
48 45 43 39 38 34 31 35 39 39 35 33 36 34 29 24 21 17 14 12 11 11 12 13 12 11 10 9 10 11 14 19 22 20 18 18 22 27 49 61 69 75 74
52 48 46 45 42 40 43 44 50 39 35 31 24 18 10 9 7 7 7 7 7 8 9 10 11 10 8 6 6 7 9 12 17 21 23 23 23 26 27 44 74 78 77
55 52 52 52 53 50 50 54 38 31 24 18 13 8 8 9 11 10 6 5 6 7 8 8 9 9 9 9 9 8 8 8 10 14 19 22 23 23 25 27 51 70 76
55 56 65 68 58 45 42 37 29 22 14 9 6 10 20 22 22 19 14 6 3 4 7 10 10 10 10 10 10 9 9 9 10 11 12 16 19 21 21 25 25 50 66
58 71 77 63 50 43 34 29 22 14 8 6 13 34 37 40 37 39 37 16 7 7 11 11 8 6 6 5 5 6 6 7 8 9 10 11 14 16 19 20 24 23 99
72 72 64 54 46 36 31 22 11 8 10 17 38 42 49 49 54 66 55 36 31 20 12 6 7 23 30 23 18 14 9 6 4 6 7 8 10 12 14 18 19 24 23
74 70 63 52 40 32 21 10 11 14 24 46 50 54 52 32 51 65 49 34 27 21 13 9 10 30 37 30 25 23 21 25 17 8 5 7 8 9 10 13 17 19 22
70 60 56 46 33 19 12 11 16 27 51 56 54 58 28 16 22 37 40 32 28 23 16 11 10 10 10 10 9 11 17 26 30 24 11 5 6 7 8 10 12 15 16
60 62 52 30 20 13 13 26 30 44 51 32 64 83 29 28 34 42 37 30 24 20 24 22 17 18 15 10 10 8 7 8 19 27 19 10 5 8 8 8 9 12 13
65 62 22 16 13 18 27 42 47 54 31 11 63 90 43 23 29 37 34 28 24 18 17 20 22 22 20 18 14 15 14 10 7 9 24 18 13 9 12 11 8 9 12
70 21 16 11 12 30 36 51 57 55 8 12 59 74 25 14 16 16 12 14 16 18 18 21 20 18 19 20 19 17 15 15 13 8 6 21 22 13 12 12 13 9 10
32 16 13 9 17 37 47 60 64 31 8 10 12 12 10 9 9 8 8 7 6 6 8 7 8 9 8 9 10 12 13 10 12 15 11 7 20 27 20 13 11 13 10
17 17 12 12 30 47 59 56 59 18 8 9 9 9 9 9 8 8 8 8 8 7 7 6 6 5 4 4 4 4 4 6 7 9 14 11 7 22 28 25 15 12 13
18 17 13 14 41 54 62 34 27 13 9 9 10 10 11 11 11 11 11 11 11 10 10 10 9 9 8 8 7 6 5 5 5 6 6 13 8 6 18 26 24 15 11
19 18 14 14 38 61 64 45 15 10 9 9 11 12 13 12 12 12 12 12 12 11 10 9 8 8 8 7 7 7 7 7 7 6 5 4 8 6 6 17 26 23 16
21 20 18 14 24 65 69 45 13 10 9 10 12 13 13 14 15 16 17 16 15 14 13 12 10 9 8 8 7 7 7 6 6 6 6 5 4 5 5 6 15 25 26
24 23 20 16 20 62 80 55 12 13 10 11 14 14 16 18 21 23 21 20 19 17 15 13 12 11 10 9 8 8 7 6 7 6 5 5 5 4 4 4 9 14 25
27 25 17 22 33 85 88 60 14 15 11 13 16 17 21 26 28 27 25 23 21 19 17 16 15 14 12 11 10 9 9 8 7 6 6 5 5 5 5 4 4 14 21
30 21 25 55 77 93 90 60 18 17 13 15 17 22 28 33 34 30 27 24 23 21 19 19 18 16 15 14 13 12 11 10 8 7 6 5 5 5 4 4 4 8 21
31 22 41 80 93 99 99 66 21 18 15 17 21 28 34 40 36 32 28 26 26 24 24 23 22 21 20 19 18 17 18 15 12 11 12 14 12 9 5 4 4 4 16

GFSMA_500_rhum_177.txt.gz
RH
36 38 37 36 37 38 38 37 37 35 33 29 23 21 19 19 18 17 17 16 15 15 14 16 19 22 28 29 23 21 22 25 29 30 23 25 32 33 54 48 30 27 45
41 40 38 36 34 33 33 30 28 28 26 24 21 19 18 18 17 16 15 14 15 16 14 14 20 22 29 30 27 24 21 24 27 32 33 24 23 40 45 50 53 24 26
39 40 39 38 36 33 29 28 26 24 25 24 22 21 20 18 18 16 15 14 12 13 18 22 24 28 32 32 26 23 23 24 29 30 33 34 29 35 40 50 58 69 36
42 43 40 37 33 33 32 30 28 27 25 24 22 21 20 20 20 20 18 15 20 30 32 32 39 42 38 34 31 27 22 22 24 29 30 31 32 38 42 48 50 60 71
48 46 40 38 34 36 36 35 32 27 24 22 22 22 21 20 19 18 17 19 25 29 32 31 36 40 41 33 30 26 25 22 21 23 27 30 30 33 43 50 54 60 64
43 37 42 45 41 43 41 35 30 26 21 24 26 24 22 20 20 21 23 24 27 29 30 28 24 22 23 25 25 23 22 20 19 20 22 26 28 29 30 44 53 57 66
58 60 58 53 49 46 36 30 25 24 24 27 23 22 19 20 21 21 20 17 14 13 12 11 14 12 11 12 14 14 15 16 16 16 18 20 25 27 28 30 42 52 56
68 65 67 60 53 42 34 32 35 37 32 23 22 25 26 21 17 12 9 8 7 7 7 7 6 6 7 7 8 9 10 12 11 12 13 15 18 24 26 27 29 58 68
69 73 72 65 56 45 41 41 44 42 32 28 25 24 19 12 8 8 8 10 13 15 15 12 9 6 5 6 7 7 8 10 9 8 8 10 13 17 25 25 26 27 60
93 86 84 72 57 50 51 52 48 41 33 28 22 18 12 9 8 27 37 27 24 23 23 23 13 6 4 6 8 8 7 8 9 8 6 6 8 11 16 25 24 25 20
96 99 87 65 56 57 58 51 46 36 30 23 15 11 9 9 24 36 49 43 34 23 29 22 13 13 11 9 9 9 9 10 9 9 9 7 6 8 10 15 23 24 24
98 96 76 66 57 57 50 48 42 34 24 13 10 10 18 40 44 42 34 36 50 54 44 37 30 23 15 11 10 9 8 8 8 9 9 9 8 7 8 10 14 21 23
99 81 67 66 65 55 50 42 36 23 12 10 12 20 42 46 60 43 18 23 41 44 36 33 38 31 16 12 18 20 30 23 14 9 6 6 7 9 8 8 10 14 19
82 68 73 70 60 53 50 39 27 10 10 24 25 48 32 34 68 52 30 37 42 37 32 30 30 28 19 18 31 43 42 32 27 23 19 11 6 5 7 9 8 10 13
74 69 64 62 56 56 40 26 10 12 23 35 47 29 8 42 70 38 24 42 47 40 34 28 22 20 19 16 14 14 13 13 17 24 27 28 23 10 5 5 8 9 10
70 60 64 64 59 48 22 11 8 19 35 49 49 10 21 60 60 15 13 18 26 30 28 24 20 17 18 19 19 17 12 10 11 10 11 16 22 21 14 7 5 6 8
59 60 68 70 55 21 16 9 17 26 45 60 27 10 12 21 12 8 9 10 13 13 10 10 9 10 11 14 17 19 19 18 16 15 15 11 8 9 17 14 7 4 6
63 66 74 66 24 19 17 9 21 37 46 48 17 10 9 9 9 8 8 8 8 8 8 8 8 7 7 8 9 11 14 16 16 17 16 14 15 15 9 10 16 9 6
65 71 70 34 19 20 13 10 21 40 49 29 15 11 10 10 10 10 10 10 11 11 11 10 10 9 8 7 6 6 5 5 6 7 9 11 11 14 15 13 8 18 13
67 72 50 22 20 20 12 11 16 40 52 31 14 12 10 11 12 12 12 12 12 12 12 11 10 10 9 8 8 8 8 8 7 7 6 6 8 9 13 15 14 8 19
74 67 31 20 22 21 16 14 13 30 53 38 11 12 10 12 14 13 14 15 16 16 16 14 13 12 11 10 9 8 8 7 6 7 7 7 8 7 7 9 14 14 8
67 36 21 21 24 24 20 15 16 32 56 53 10 12 11 13 14 15 18 20 21 20 20 18 16 15 13 12 10 9 9 8 7 6 5 5 6 7 7 8 8 12 12
44 25 22 25 29 27 17 26 34 66 81 57 16 13 13 15 16 20 24 26 26 24 22 20 18 16 14 12 12 10 9 8 8 7 7 6 6 5 5 6 6 6 8
46 23 30 33 33 23 21 49 65 74 84 60 21 18 15 17 20 26 31 33 30 26 23 20 18 17 15 14 13 12 11 10 9 9 8 8 6 6 6 5 5 5 5
28 27 39 38 32 21 31 70 84 91 100 77 22 19 17 19 25 33 39 36 30 27 24 23 21 19 18 16 15 14 13 11 10 9 9 9 9 8 8 7 6 5 5
39 39 46 44 28 23 44 83 91 94 95 45 22 20 20 22 30 40 43 37 33 31 28 25 24 22 20 18 17 16 15 14 13 12 11 10 10 12 10 9 7 6 5

GFSMA_500_rhum_180.txt.gz
RH
38 32 31 32 34 35 37 36 34 31 29 26 23 21 20 19 16 16 15 16 16 15 13 12 11 11 11 11 11 12 15 16 24 25 22 22 25 29 23 43 35 41 53
47 49 42 38 39 39 35 33 32 29 25 23 21 20 21 21 20 18 18 17 15 15 14 13 11 11 11 11 11 10 12 19 25 25 25 24 26 29 32 30 48 41 52
56 46 44 43 44 38 26 21 20 13 15 18 20 23 23 21 20 22 24 23 19 17 16 14 13 12 12 11 11 11 10 14 23 30 28 27 26 31 35 38 30 51 51
63 52 50 43 36 36 27 19 23 25 21 21 15 23 28 30 27 25 22 19 17 14 14 14 15 15 14 13 12 11 13 20 26 31 29 27 29 32 35 40 45 33 53
62 61 44 38 32 29 29 24 24 34 39 38 36 34 30 26 24 23 20 17 17 16 15 15 16 17 19 21 25 29 28 33 40 37 34 26 26 31 34 35 44 49 37
73 63 49 44 42 41 38 34 33 40 45 44 40 32 28 27 28 24 19 16 14 12 11 11 13 14 17 21 29 33 32 36 45 45 34 32 28 25 30 32 34 46 55
58 52 45 49 46 45 44 36 39 48 53 44 36 29 28 27 26 22 16 13 13 14 15 14 12 11 10 11 15 22 26 24 21 26 32 27 24 25 24 29 31 33 56
56 47 48 46 46 51 55 60 62 58 51 40 31 32 33 30 25 21 16 15 14 12 9 8 7 7 7 7 7 8 11 12 12 14 16 22 23 19 20 24 29 29 31
58 59 58 58 55 60 72 69 68 59 41 28 30 33 32 28 24 19 17 13 10 9 13 17 19 20 18 15 11 7 6 6 8 8 10 12 14 14 16 18 24 28 28
65 66 63 59 65 79 74 76 62 42 34 32 33 29 24 24 20 14 12 9 12 34 36 37 32 23 22 20 13 13 10 6 6 8 9 9 12 12 12 13 16 21 26
67 67 70 78 83 75 73 59 45 42 42 37 30 27 26 20 14 10 16 25 40 42 34 36 38 30 23 23 14 12 10 6 5 7 9 9 10 10 9 9 12 14 18
80 87 87 88 76 75 56 45 44 44 42 36 34 30 19 10 10 14 34 40 55 52 24 28 40 44 36 45 35 23 16 12 9 9 10 10 9 8 9 7 8 10 12
85 86 90 85 73 53 47 43 40 45 45 42 34 17 9 12 20 36 19 52 64 40 33 35 36 32 37 65 82 58 45 26 14 10 10 10 10 10 8 7 6 7 8
99 100 96 78 42 51 41 32 45 53 48 27 12 9 14 18 31 8 42 62 40 27 34 38 34 32 29 29 44 60 58 54 43 39 30 14 10 8 9 9 8 8 8
100 100 91 54 52 38 29 42 57 56 29 19 9 14 27 43 9 45 64 37 11 22 24 28 27 29 27 22 18 19 27 33 41 52 43 32 25 17 9 6 7 9 8
98 99 60 51 35 30 36 50 58 38 24 13 8 25 46 41 9 14 17 10 10 14 12 14 15 15 13 11 10 9 10 14 16 16 18 26 32 30 26 20 11 6 6
98 65 62 42 31 25 42 58 44 24 23 8 11 29 42 36 10 9 9 8 8 8 9 10 10 10 10 10 9 9 8 7 8 11 12 12 12 13 19 25 24 19 10
92 75 64 42 34 37 53 52 25 23 13 9 13 26 40 32 10 10 10 10 10 10 11 11 10 10 11 10 10 9 8 7 7 9 10 14 15 14 13 11 9 10 17
93 84 58 44 42 53 60 36 22 23 13 11 12 16 36 31 11 11 12 12 12 12 12 12 13 14 13 11 10 10 9 8 8 6 7 9 10 12 14 15 15 16 14
95 74 58 54 56 64 49 22 23 24 22 16 14 12 21 34 10 12 13 13 13 14 16 17 17 16 16 14 13 12 10 8 8 8 8 8 9 10 11 12 12 14 16
100 92 65 62 66 56 29 23 26 29 22 16 17 18 28 38 12 11 13 14 15 18 20 20 20 19 17 15 14 13 12 11 10 8 8 7 6 6 8 11 13 14 13
100 95 61 71 63 39 26 26 31 30 18 17 30 33 63 51 14 12 14 16 19 22 24 25 23 22 20 18 16 14 13 12 10 9 8 7 7 6 5 5 5 9 13
100 88 66 68 62 36 28 34 36 24 17 35 50 51 68 60 19 14 16 19 24 30 31 30 27 24 22 19 18 16 14 12 10 9 8 7 6 6 5 5 5 5 4
100 95 72 67 55 30 36 40 33 20 29 66 76 83 87 69 22 17 19 23 30 36 39 33 30 28 26 22 20 17 15 13 11 10 9 8 7 6 6 5 5 4 4
98 83 67 57 30 32 44 45 29 21 38 75 91 93 92 44 24 18 21 26 33 43 40 36 34 33 29 25 21 17 15 12 10 9 8 7 6 6 5 5 5 5 4
93 74 51 30 36 46 49 39 29 25 43 79 94 88 69 34 26 21 26 26 37 47 44 41 39 35 30 24 20 17 14 11 9 8 6 6 5 4 4 4 4 4 4

GFSMA_500_rhum_183.txt.gz
RH
47 46 43 45 52 50 42 38 39 36 25 18 18 14 12 12 12 12 11 11 10 10 11 11 12 15 16 12 12 13 12 12 11 12 14 18 21 22 25 27 34 38 39
53 64 68 63 55 50 48 47 44 34 19 12 12 10 9 8 8 9 10 9 8 10 11 10 12 13 12 12 15 14 13 12 12 12 12 13 17 22 25 27 29 34 38
65 79 81 71 65 60 53 47 30 20 17 15 11 9 9 8 9 9 9 13 15 18 20 18 19 19 18 18 18 16 14 12 12 13 12 12 14 18 25 29 29 31 38
75 96 91 77 61 56 48 36 24 19 18 17 14 12 8 9 9 10 13 15 22 27 27 25 23 20 18 16 15 14 14 13 12 12 12 14 18 20 27 31 30 47 42
92 79 80 72 65 53 42 32 25 23 16 12 11 10 11 12 14 16 21 27 31 29 25 21 18 15 13 13 14 13 15 15 15 15 15 18 20 30 31 31 31 31 47
92 93 67 55 46 42 35 29 24 22 20 16 12 16 22 26 27 29 32 31 25 21 19 16 17 15 11 10 10 11 14 14 16 17 17 16 25 31 45 39 31 30 31
77 69 58 52 44 39 38 38 32 30 24 21 26 26 33 36 33 31 25 20 17 14 13 13 12 12 13 13 12 12 12 13 14 17 20 23 28 32 46 44 36 29 29
76 72 61 58 56 52 45 38 35 33 33 34 33 36 38 34 30 22 17 16 15 14 12 11 12 12 11 9 8 8 7 7 7 9 13 19 25 31 31 40 44 32 28
78 70 65 60 53 45 39 34 39 42 41 40 43 42 37 29 24 20 20 20 17 14 14 11 8 8 10 16 20 18 14 10 8 6 6 8 14 19 23 24 28 27 27
67 56 50 45 39 39 42 44 44 43 42 46 44 35 30 27 27 22 22 21 19 14 10 14 25 34 36 34 34 26 24 24 18 15 12 8 7 10 14 16 18 22 24
69 63 51 44 43 44 38 45 48 44 45 37 28 26 24 31 37 34 28 21 14 10 26 33 45 54 34 29 36 34 25 14 11 15 15 12 8 7 10 12 15 16 19
64 48 43 44 49 46 42 51 47 40 30 25 19 18 27 35 37 32 18 13 9 26 16 53 43 32 33 35 32 34 61 70 42 18 11 11 10 7 7 10 12 15 14
62 50 44 42 49 48 52 53 56 31 20 18 18 18 33 41 34 18 9 12 22 36 49 33 28 33 34 30 28 33 56 99 100 85 36 11 8 7 6 9 10 12 13
65 55 48 46 53 60 60 59 44 26 20 20 16 28 43 36 19 6 14 31 28 54 36 22 24 24 21 24 24 26 27 42 85 100 100 61 28 14 11 10 10 10 11
75 61 56 50 62 64 66 53 36 25 19 14 20 41 39 30 10 11 39 19 13 8 8 13 15 14 11 11 11 12 15 18 26 58 75 82 81 53 21 11 10 10 10
90 88 70 63 64 75 62 46 36 27 17 24 32 42 36 18 10 12 41 16 9 8 8 8 8 9 10 10 10 10 10 10 10 11 19 38 55 64 51 34 16 10 9
96 87 70 63 78 91 66 57 39 24 28 35 45 34 30 11 12 12 33 15 10 10 10 10 11 11 11 12 13 12 11 10 9 8 8 8 11 22 33 45 42 33 23
90 70 69 74 93 96 86 51 32 28 42 45 41 30 31 24 16 13 22 14 10 11 12 12 12 13 15 16 15 15 14 12 11 10 9 8 7 6 6 10 17 29 33
60 66 97 94 100 96 73 46 33 37 51 45 32 30 35 29 17 16 19 20 11 13 12 14 16 18 19 19 20 18 16 15 13 11 9 8 8 8 7 6 5 6 8
94 95 99 97 100 97 87 58 36 46 46 36 29 35 36 23 17 11 29 24 12 13 14 16 19 22 22 22 20 18 16 14 13 12 11 9 8 8 8 8 8 9 9
88 100 100 100 100 100 91 57 52 53 36 31 34 39 30 19 17 18 45 42 12 14 17 20 24 26 26 24 22 20 18 17 15 13 12 10 9 8 7 6 8 10 12
100 100 100 100 100 100 96 67 59 47 32 34 39 36 24 18 32 32 50 52 17 15 20 26 30 31 30 28 26 24 22 20 18 15 13 12 10 9 8 7 7 6 5
100 100 100 100 100 99 100 77 53 36 34 39 40 31 18 35 61 67 75 63 22 17 23 30 35 37 34 31 29 27 26 24 20 17 14 13 11 10 9 8 7 6 6
99 100 100 100 100 98 92 56 38 33 40 43 38 26 20 62 77 77 80 48 22 18 25 34 42 42 38 36 35 33 31 27 21 17 14 13 11 10 9 8 8 7 7
100 100 100 100 93 94 73 38 34 44 43 43 36 22 31 75 88 78 75 33 24 21 25 34 47 47 44 41 35 32 31 26 21 17 14 12 11 10 8 8 7 6 6
100 100 100 100 91 71 36 46 45 46 45 45 26 24 51 90 94 84 59 36 27 24 31 36 46 53 50 43 34 35 31 25 20 17 14 12 10 8 7 6 5 4 4